Location: ???????
(55.1208°N, 39.0800°E)
Time: 11:41:37
(UTC+00:00)

Daily predictions for brighter satellites

Satellite Brightness Start Highest point End
(mag) Time Altitude Azimuth Time Altitude Azimuth Time Altitude Azimuth
Cosmos 1992 Rocket 4.0 17:05:33 10° SSW 17:10:42 67° ESE 17:15:55 10° NNE
Cosmos 2297 Rocket 2.5 17:05:11 10° NNW 17:10:46 55° NE 17:16:19 10° SE
Okean 2 Rocket 4.0 17:07:37 10° SSE 17:11:33 31° E 17:15:30 10° NNE
BREEZE-M R/B 3.3 17:10:07 10° WSW 17:12:23 23° S 17:14:27 10° SE
SPOT 5 3.6 17:09:10 10° SE 17:14:10 44° ENE 17:19:05 10° N
Cosmos 1503 Rocket 4.1 17:10:45 10° NNW 17:16:11 84° ENE 17:21:33 10° SSE
Cosmos 2369 Rocket 2.9 17:11:56 10° SW 17:17:33 62° NW 17:23:10 10° NNE
Cosmos 1354 Rocket 4.1 17:13:40 10° NNW 17:19:01 72° ENE 17:24:21 10° SE
NOSS 2-3 (E) 4.3 17:15:36 10° WSW 17:19:23 55° NNW 17:24:00 10° NE
Cosmos 2219 4.3 17:20:04 10° NNW 17:25:10 32° NE 17:30:12 10° E
ATLAS 5 CENTAUR R/B 1.1 17:22:56 10° SSW 17:26:16 52° SE 17:30:04 10° NE
Terra 2.8 17:23:02 10° ESE 17:27:14 32° ENE 17:31:26 10° N
BlueWalker 3 3.5 17:26:07 10° S 17:28:33 16° SE 17:30:59 10° E
Cosmos 332 Rocket 4.2 17:25:18 10° NNW 17:30:02 49° NE 17:34:40 10° SE
Cosmos 2098 Rocket 3.0 17:26:34 10° SSW 17:31:06 79° WNW 17:34:48 10° N
Iridium 4 Rocket 4.3 17:26:18 10° SSE 17:31:30 40° E 17:36:55 10° NNE
NOSS 8 (F) 4.2 17:28:38 10° NW 17:31:35 78° NE 17:34:51 12° SE
CARTOSAT-1 4.1 17:28:54 10° S 17:33:07 60° WSW 17:37:23 10° NNW
Sich 1 Rocket 3.9 17:30:38 10° SSE 17:34:53 48° E 17:39:12 10° NNE
Okean 1 Rocket 3.9 17:31:16 10° SSE 17:35:14 33° E 17:39:15 10° NNE
NOSS 2-2 (C) 4.1 17:33:18 10° WSW 17:36:19 42° NNW 17:39:38 10° NE
NOSS 3-2 (A) 4.5 17:30:01 10° NW 17:36:25 51° NNE 17:44:10 10° E
Cosmos 2263 Rocket 3.5 17:32:29 10° NNW 17:37:24 29° NE 17:42:16 10° E
USA 245 4.2 17:32:43 10° SE 17:37:27 42° ENE 17:41:21 10° N
CZ-4B R/B 4.4 17:32:14 10° S 17:37:35 44° W 17:42:54 10° NNW
USA 267 3.3 17:31:19 10° ENE 17:37:53 70° SSE 17:44:26 10° SW
Cosmos 1455 4.4 17:35:22 10° SW 17:38:30 28° WNW 17:41:39 10° N
Okean-O 2.7 17:35:08 10° SSE 17:39:33 86° WSW 17:44:00 10° NNW
Nadezhda 3 Rocket 4.0 17:33:29 10° S 17:39:37 76° E 17:45:50 10° NNE
Ariane Rocket 3.6 17:36:14 11° SE 17:40:48 40° ENE 17:45:31 10° N
Cosmos 1605 Rocket 4.3 17:37:22 10° N 17:43:39 54° ENE 17:49:48 10° SSE
CZ-4C R/B 3.1 17:41:16 10° NNE 17:44:38 50° ESE 17:47:55 10° S
Cosmos 990 Rocket 4.2 17:42:17 10° NNW 17:47:26 57° ENE 17:51:50 14° SE
Cosmos 1437 Rocket 3.7 17:44:17 10° N 17:47:50 32° ENE 17:50:37 15° SE
Cosmos 44 4.5 17:44:28 10° S 17:48:48 25° ESE 17:53:05 10° ENE
Genesis I 3.9 17:46:26 10° WNW 17:49:53 42° SW 17:53:07 11° SSE
Aureole 1 Rocket 3.2 17:48:23 10° NNW 17:51:08 31° NE 17:53:03 16° ESE
USA 186 4.5 17:50:53 10° SW 17:53:01 17° W 17:55:09 10° NW
Okean O Rocket 3.1 17:50:37 10° SSW 17:54:39 37° W 17:58:46 10° NNW
CZ-4 R/B 4.2 17:59:39 10° WSW 18:01:49 14° W 18:03:59 10° NW
CENTAUR R/B 3.4 17:54:43 10° NW 18:02:20 67° NNE 18:10:31 13° ESE
Cosmos 1536 Rocket 4.1 17:58:53 10° NNW 18:03:13 59° W 18:07:35 10° S
NOSS 3-1 (A) 3.1 18:01:10 10° SSW 18:06:14 66° SE 18:12:29 10° NE
IRS-1C Rocket 4.2 18:01:57 10° SSE 18:07:15 79° WSW 18:12:34 10° NNW
Resurs 01 Rocket 3.6 18:05:38 10° SSW 18:09:27 28° W 18:13:17 10° NNW
MOS 1 Rocket 3.9 18:07:00 18° ESE 18:09:44 36° ENE 18:13:49 10° N
Cosmos 2058 3.7 18:08:50 10° N 18:12:33 34° ENE 18:14:40 20° ESE
Cosmos 1934 Rocket 4.3 18:08:24 10° NNW 18:14:31 69° W 18:20:42 10° S
USA 229 DEB 4.0 18:09:42 10° S 18:15:22 39° ESE 18:21:36 10° NE
USA 229 4.0 18:09:48 10° S 18:15:29 39° ESE 18:21:41 10° NE
ERS-1 Rocket 2.9 18:11:31 14° SSE 18:15:50 85° ENE 18:20:53 10° NNW
SPOT 3 Rocket 3.6 18:14:33 17° SSE 18:18:33 68° ENE 18:23:43 10° NNW
USA 281 4.1 18:13:34 10° S 18:19:48 44° WSW 18:26:05 10° NW
Cosmos 1339 Rocket 4.4 18:13:53 10° S 18:20:01 89° E 18:26:09 10° NNE
Cosmos 2227 Rocket 2.2 18:20:51 10° NW 18:26:35 90° WSW 18:30:32 21° SSE
NOSS 3-1 (C) 3.7 18:21:34 10° WSW 18:26:51 68° NNW 18:33:25 10° NE
Cosmos 2151 Rocket 4.2 18:22:55 10° SSW 18:27:16 58° WNW 18:31:41 10° N
Cosmos 2344 4.4 18:21:04 10° W 18:28:09 52° NNW 18:36:16 10° ENE
Landsat 5 4.3 18:25:32 10° NNE 18:29:21 31° E 18:30:43 25° SE
Cosmos 1980 Rocket 3.6 18:31:51 18° ESE 18:32:35 19° E 18:36:23 10° ENE
ATLAS CENTAUR R/B 1.1 18:29:14 10° NW 18:32:59 89° NE 18:34:52 29° SE
Cosmos 292 Rocket 3.9 18:32:46 10° NNW 18:37:30 62° ENE 18:40:04 26° SE
Cosmos 1892 Rocket 3.5 18:33:54 10° NNW 18:38:15 82° W 18:41:02 22° S
Cosmos 1937 Rocket 3.8 18:35:14 10° NNW 18:40:30 58° ENE 18:43:32 25° SE
ATLAS 3B R/B 3.0 18:33:16 10° SW 18:40:34 85° NW 18:48:21 10° NE
COSMOS 2455 3.3 18:34:50 10° NW 18:40:43 55° WSW 18:44:51 20° SSE
Cosmos 1697 Rocket 3.2 18:37:21 18° SSE 18:40:58 38° ESE 18:46:10 10° NE
Cosmos 2360 4.4 18:36:18 10° S 18:41:46 49° ESE 18:47:15 10° NE
SL-4 R/B 2.6 18:39:24 10° W 18:42:32 29° SSW 18:43:07 27° S
H-2A R/B 4.1 18:42:12 16° E 18:43:34 19° ENE 18:46:19 10° N
Okean 2 Rocket 4.4 18:45:13 10° SW 18:49:28 41° WNW 18:53:45 10° N
CZ-4C R/B 3.1 18:45:22 10° NW 18:52:09 67° SW 18:57:31 23° SSE
SPOT 5 4.2 18:47:17 10° SSW 18:52:15 39° W 18:57:08 10° NNW
NOSS 3-2 (C) 4.3 18:46:00 10° NW 18:52:39 59° NNE 18:59:43 14° ESE
Cosmos 1898 Rocket 3.5 18:47:45 10° NNW 18:53:04 86° ENE 18:55:50 29° SSE
MetOp-A 3.2 18:52:40 35° SSE 18:54:12 81° ENE 18:58:02 10° NNW
Cosmos 2297 Rocket 3.3 18:49:30 10° NW 18:54:41 38° WSW 18:58:47 15° S
Cosmos 1602 Rocket 4.3 18:51:35 10° N 18:55:40 37° ENE 18:57:08 29° ESE
Cosmos 1758 Rocket 4.2 18:52:04 10° N 18:56:20 42° ENE 18:57:55 30° ESE
Spot 2 Rocket 3.9 18:56:18 19° S 18:59:49 57° WSW 19:04:49 10° NNW
Cosmos 405 Rocket 2.5 18:59:06 27° SSW 19:01:04 88° WNW 19:04:48 10° NNE
USA 81 4.0 18:58:10 26° SSE 19:01:06 66° E 19:06:21 10° NNE
Cosmos 2228 4.0 19:01:42 28° ESE 19:02:10 28° E 19:05:48 10° NNE
Cosmos 1725 Rocket 4.4 18:56:44 10° N 19:02:44 49° ENE 19:05:48 27° SE
ARIANE 5 R/B 3.4 19:02:21 28° ESE 19:04:02 40° ENE 19:08:13 10° N
Cosmos 1459 Rocket 4.0 18:58:15 10° N 19:04:18 69° ENE 19:07:34 29° SSE
Cosmos 1656 3.7 18:58:52 10° SW 19:04:26 79° NW 19:09:58 10° NNE
Terra 2.6 19:01:26 18° SSW 19:04:43 46° W 19:09:18 10° NNW
Meteor 2-1 Rocket 4.4 19:03:28 29° SSE 19:05:57 50° E 19:11:15 10° NNE
BlueWalker 3 2.1 19:02:28 10° SW 19:06:07 45° SSE 19:06:07 45° SSE
Spot 1 4.1 19:03:39 10° NNE 19:08:24 78° ESE 19:10:50 27° S
Cosmos 2219 3.2 19:04:11 10° NW 19:09:52 77° WSW 19:12:38 31° SSE
ATLAS 5 CENTAUR R/B 2.8 19:06:54 10° W 19:10:19 38° NNW 19:14:18 10° NE
Cosmos 1455 Rocket 3.2 19:09:45 21° SSW 19:12:37 76° WNW 19:17:01 10° N
Okean 1 Rocket 4.5 19:08:52 10° SW 19:13:01 38° WNW 19:17:14 10° N
Ariane Rocket 4.0 19:16:23 18° SSW 19:19:47 40° W 19:24:33 10° NNW
Cosmos 858 Rocket 4.5 19:15:13 10° NNW 19:20:33 86° ENE 19:22:42 37° SSE
USA 267 3.4 19:14:28 10° ENE 19:21:03 79° N 19:27:37 10° W
Cosmos 1666 4.2 19:18:50 10° NNE 19:21:35 21° ENE 19:21:52 20° ENE
Cosmos 2263 Rocket 2.1 19:16:21 10° NW 19:22:01 87° WSW 19:24:25 36° SSE
ALOS 2 4.2 19:21:12 20° E 19:22:43 24° ENE 19:26:14 10° N
Cosmos 1763 Rocket 3.4 19:17:53 11° SSW 19:22:45 84° WNW 19:27:57 10° NNE
Cosmos 1437 Rocket 4.2 19:20:04 10° NNW 19:23:33 31° W 19:25:29 20° SW
NOSS 3-2 (A) 3.9 19:20:51 10° NW 19:27:54 84° SW 19:32:37 29° SE
Cosmos 2082 3.7 19:22:36 10° NW 19:28:18 82° WSW 19:30:38 37° SSE
Cosmos 2173 Rocket 4.1 19:22:37 10° NNW 19:29:02 82° W 19:32:25 30° S
Cosmos 44 3.5 19:24:06 10° SW 19:29:31 87° NW 19:34:49 10° NE
Cosmos 1862 3.7 19:26:06 10° N 19:29:53 44° ENE 19:30:23 42° E
Aureole 1 Rocket 4.2 19:31:56 10° WNW 19:34:09 19° WSW 19:34:29 19° WSW
Cosmos 1544 2.8 19:31:15 10° N 19:33:47 62° N 19:33:47 62° N
Meteor 2-3 Rocket 3.7 19:29:16 10° NNW 19:34:59 88° WSW 19:37:24 37° S
Cosmos 1271 Rocket 3.8 19:36:14 10° N 19:39:39 31° ENE 19:39:59 30° ENE
Cosmos 2322 Rocket 4.3 19:40:26 10° E 19:40:26 10° E 19:40:51 10° E
Cosmos 540 Rocket 3.5 19:39:04 20° SSW 19:42:42 79° WNW 19:47:51 10° NNE
Cosmos 1500 3.8 19:39:23 10° N 19:42:39 39° ENE 19:42:39 39° ENE
Meteor 2-15 4.4 19:37:00 10° NNW 19:43:10 80° W 19:45:56 35° S
Meteor 2-15 Rocket 4.4 19:40:15 10° NNW 19:46:27 86° ENE 19:48:58 38° SSE
Intercosmos 25 4.2 19:42:53 10° NNW 19:47:50 47° W 19:49:00 35° SW
MOS 1 Rocket 4.3 19:46:11 24° SW 19:47:57 34° W 19:51:58 10° NNW
Cosmos 1864 Rocket 4.4 19:42:14 10° NNW 19:48:28 86° W 19:51:03 37° S
Cosmos 2058 4.3 19:45:33 10° NNW 19:49:06 30° W 19:50:33 23° SW
Cosmos 1606 2.4 19:49:35 81° ESE 19:49:36 81° E 19:53:15 10° NNE
Cosmos 1626 Rocket 4.2 19:46:25 10° NNW 19:50:40 48° W 19:52:02 35° SW
Cosmos 1802 Rocket 4.1 19:45:02 10° NNW 19:51:19 77° W 19:54:10 35° S
PSLV R/B 4.2 19:47:55 10° NNE 19:51:51 49° E 19:51:51 49° E
Spot 4 4.2 19:51:15 42° ESE 19:52:31 55° ENE 19:57:13 10° N
USA 238 DEB 4.1 19:45:31 10° NW 19:52:35 67° NNE 19:58:10 20° ESE
USA 238 4.1 19:45:37 10° NW 19:52:40 67° NNE 19:58:18 20° ESE
CENTAUR R/B 3.4 19:45:26 10° NW 19:53:18 59° SW 19:57:39 32° SSE
Cosmos 468 Rocket 4.2 19:51:31 19° SW 19:55:16 69° WNW 20:00:32 10° NNE
Cosmos 1844 4.4 19:51:16 10° NNW 19:56:51 48° NE 19:59:45 27° ESE
NOSS 3-1 (A) 4.3 19:51:59 10° W 19:57:22 50° NNW 20:04:03 10° NE
Cosmos 2016 Rocket 3.9 19:52:40 10° NNW 19:58:48 79° W 20:01:17 39° S
SL-16 R/B 3.6 19:59:19 22° E 19:59:19 22° E 20:03:22 10° NE
Cosmos 1953 Rocket 3.8 20:00:08 10° N 20:04:25 51° ENE 20:04:56 48° E
Cosmos 841 Rocket 3.3 20:03:36 45° SSW 20:05:11 80° ESE 20:10:21 10° NNE
Uosat 12 SS-18 rocket 3.9 20:00:49 10° NW 20:05:33 82° SW 20:06:08 66° SSE
USA 229 DEB 3.8 19:59:33 10° WSW 20:05:54 74° NW 20:13:02 10° NE
USA 229 3.8 19:59:39 10° WSW 20:06:00 74° NW 20:13:07 10° NE
Cosmos 1844 Rocket 3.1 20:01:02 10° NNW 20:06:36 57° NE 20:08:52 34° ESE
Spot 2 3.8 20:09:01 69° ESE 20:09:20 73° ENE 20:13:24 10° NNW
Cosmos 1869 3.6 20:09:00 50° WSW 20:09:33 57° WNW 20:13:23 10° N
Cosmos 1125 Rocket 4.0 20:04:27 10° NNW 20:09:35 51° NE 20:11:22 36° ESE
Cosmos 2227 Rocket 4.0 20:05:48 10° NW 20:09:56 21° W 20:12:21 16° SW
ATLAS CENTAUR R/B 3.3 20:07:51 10° WNW 20:09:58 16° WSW 20:09:58 16° WSW
Cosmos 1544 Rocket 4.3 20:12:25 34° SW 20:13:54 48° WNW 20:18:07 10° N
Cosmos 1980 Rocket 2.1 20:13:32 39° SSW 20:15:46 83° ESE 20:21:28 10° NE
H-2A R/B 2.4 20:18:14 59° WSW 20:18:14 59° WSW 20:22:00 10° NNW
Cosmos 2278 4.3 20:20:58 38° ESE 20:21:16 38° ESE 20:26:30 10° NE
GENESIS II 4.5 20:20:07 10° NW 20:23:08 54° WNW 20:23:08 54° WNW
Cosmos 2123 Rocket 4.1 20:21:07 34° SSW 20:24:02 74° WNW 20:30:25 10° N
Cosmos 1697 Rocket 3.3 20:19:15 10° SW 20:24:48 54° NW 20:30:24 10° NNE
Cosmos 1812 4.4 20:29:18 22° ENE 20:29:18 22° ENE 20:31:26 10° NE
Meteor 1-27 4.1 20:28:24 49° S 20:30:00 89° ESE 20:35:36 10° NNE
Cosmos 2151 2.8 20:25:49 10° N 20:30:04 78° E 20:30:13 76° ESE
CZ-2C R/B 4.0 20:26:37 10° NNE 20:31:23 69° WNW 20:32:37 47° SW
ATLAS 3B R/B 3.9 20:25:01 10° W 20:32:13 48° NNW 20:39:44 10° ENE
Cosmos 2228 4.0 20:38:16 33° WSW 20:39:22 39° WNW 20:43:20 10° N
CZ-4C R/B 4.4 20:34:30 10° WNW 20:39:59 23° WSW 20:42:37 20° SW
ARIANE 5 R/B 3.7 20:39:49 32° WSW 20:40:29 34° W 20:44:36 10° NNW
NOSS 3-2 (C) 4.0 20:36:51 10° NW 20:43:57 67° SW 20:47:08 40° SSE
Cosmos 2344 4.4 20:36:37 10° WNW 20:44:02 55° NNE 20:53:24 10° E
Cosmos 2227 4.4 20:39:07 10° NW 20:44:44 59° WSW 20:45:50 50° SSW
Cosmos 2369 3.7 20:45:58 37° SW 20:48:16 78° NW 20:53:58 10° NNE
Cosmos 2233 Rocket 4.3 20:42:43 10° NNW 20:48:43 54° W 20:50:44 38° SW
Cosmos 1076 Rocket 3.3 20:45:03 10° N 20:49:23 86° ENE 20:49:28 85° ESE
Cosmos 2150 Rocket 4.2 20:45:51 10° NNW 20:50:59 62° ENE 20:52:20 46° ESE
Cosmos 1825 Rocket 4.3 20:48:31 10° NNW 20:52:38 40° W 20:52:59 39° WSW
Cosmos 1606 Rocket 3.6 20:53:31 62° WSW 20:53:53 66° WNW 20:58:11 10° N
H-2A R/B 2.8 20:50:19 10° NNE 20:53:58 40° E 20:53:58 40° E
Cosmos 2298 Rocket 4.2 20:49:25 10° NNW 20:54:45 67° ENE 20:56:09 47° ESE
ATLAS 5 CENTAUR R/B 3.6 20:51:43 10° WNW 20:55:11 27° N 20:59:15 10° ENE
Cosmos 1666 3.6 20:52:53 10° NNW 20:55:38 37° WNW 20:55:38 37° WNW
Lacrosse 4 Rocket 1.7 20:57:46 54° ENE 20:57:46 54° ENE 21:01:00 10° NE
Cosmos 1464 Rocket 4.1 20:51:52 10° N 20:58:16 72° ENE 21:00:18 45° SSE
ALOS 2 2.7 20:58:36 59° WSW 20:58:44 60° WSW 21:03:07 10° NNW
Cosmos 1447 Rocket 4.4 20:57:57 49° SSW 20:59:48 88° W 21:06:00 10° N
USA 267 3.3 20:57:26 10° E 21:04:01 84° NNE 21:10:37 10° WNW
SL-19 R/B 4.3 20:58:22 10° NNE 21:04:02 88° WNW 21:05:43 49° SSW
Cosmos 2263 Rocket 3.8 21:01:14 10° NW 21:05:11 20° W 21:06:06 19° WSW
Cosmos 1814 Rocket 3.9 21:04:56 60° SSW 21:05:54 88° WNW 21:11:05 10° NNE
Cosmos 2360 Rocket 3.0 21:09:23 34° ESE 21:09:42 34° ESE 21:14:45 10° NE
Cosmos-2242 3.9 21:09:57 36° E 21:09:57 36° E 21:13:40 10° NNE
Helios 1A Rocket 4.2 21:09:10 29° E 21:09:48 31° ENE 21:13:18 10° N
Cosmos 2058 Rocket 2.9 21:10:16 81° ESE 21:10:17 81° E 21:14:40 10° NNE
Aureole 3 Rocket 4.0 21:06:55 10° N 21:11:17 35° ENE 21:11:48 34° E
Cosmos 1891 Rocket 4.5 21:06:45 10° NNW 21:12:54 73° W 21:14:37 49° SSW
Cosmos 1513 Rocket 4.4 21:07:18 10° NNW 21:13:24 77° W 21:15:01 51° S
Cosmos 1271 Rocket 4.1 21:11:42 10° NNW 21:14:33 29° WNW 21:14:33 29° WNW
Meteor 1-20 Rocket 4.1 21:10:05 10° NNW 21:15:45 88° ENE 21:17:02 56° SSE
Cosmos 1867 4.1 21:10:24 10° NW 21:15:51 59° NE 21:19:19 22° ESE
Cosmos 1461 4.2 21:12:33 10° NW 21:16:12 35° NNE 21:17:59 23° ENE
Cosmos 2084 Rocket 3.8 21:14:19 10° NW 21:17:19 49° WNW 21:17:19 49° WNW
Cosmos 2034 Rocket 4.0 21:14:09 10° N 21:20:22 72° ENE 21:22:16 46° SSE
Cosmos 2278 Rocket 3.8 21:15:36 10° NNW 21:20:43 33° NE 21:25:48 10° E
Cosmos 2333 Rocket 2.9 21:21:48 36° ESE 21:22:15 36° ESE 21:27:23 10° NE
Cosmos 2322 Rocket 2.4 21:22:13 49° SE 21:22:49 51° ESE 21:28:15 10° NE
Cosmos 1570 Rocket 4.0 21:22:21 60° SE 21:22:54 64° ESE 21:28:05 10° NNE
Cosmos 2219 Rocket 3.5 21:24:01 24° ESE 21:24:30 25° ESE 21:28:57 10° NE
Lacrosse 5 2.9 21:26:47 31° ESE 21:26:47 31° ESE 21:30:10 10° ENE
Meteor 1-25 Rocket 4.1 21:21:54 10° NNW 21:27:34 89° WSW 21:28:46 58° SSE
SL-24 R/B 4.2 21:22:33 10° NNE 21:27:40 72° ESE 21:28:07 67° SE
USA 32 4.5 21:31:37 43° ESE 21:32:37 49° E 21:37:39 10° NNE
Cosmos 1726 Rocket 4.5 21:33:51 35° W 21:34:27 37° WNW 21:38:31 10° N
Cosmos 2221 4.2 21:36:52 22° E 21:37:17 23° E 21:40:37 10° NE
Cosmos 1809 Rocket 4.4 21:36:56 48° SSW 21:38:45 78° WNW 21:45:00 10° N
Cosmos 1844 4.1 21:35:33 10° NW 21:41:02 46° WSW 21:41:36 45° SW
Cosmos 1634 Rocket 4.4 21:35:03 10° N 21:41:19 59° ENE 21:43:58 34° SE
Geosat 3.9 21:40:26 59° SSE 21:41:26 88° WSW 21:46:30 10° NW
Cosmos 1238 Rocket 3.6 21:42:25 38° NW 21:42:25 38° NW 21:45:38 10° N
SL-16 R/B 2.1 21:41:08 53° SW 21:42:34 88° WNW 21:48:18 10° NNE
USA 238 DEB 4.1 21:36:35 10° NW 21:43:35 53° SW 21:45:33 43° S
USA 238 4.1 21:36:41 10° NW 21:43:41 53° SW 21:45:42 43° S
SL-19 R/B 4.5 21:39:31 10° NNE 21:43:42 72° ESE 21:43:47 72° ESE
Cosmos 1782 3.0 21:49:03 61° ENE 21:49:03 61° ENE 21:52:29 10° NNE
Cosmos 1844 Rocket 3.4 21:45:14 10° NW 21:50:18 36° WSW 21:50:30 36° WSW
Cosmos 1125 Rocket 4.3 21:46:46 10° NW 21:51:28 34° WSW 21:51:35 34° WSW
Cosmos 1378 4.4 21:57:02 29° ENE 21:57:02 29° ENE 21:59:27 10° NNE
Resurs 1-4 Rocket 4.3 21:53:43 10° NE 21:56:46 15° E 21:59:26 11° ESE
Cosmos 1943 Rocket 3.7 21:53:24 10° NNW 21:58:35 35° NE 22:03:45 10° ESE
NOSS 2-1 (E) 4.1 22:00:22 37° NNE 22:00:22 37° NNE 22:02:30 10° NE
Cosmos 1980 Rocket 3.8 21:55:26 10° W 22:00:24 31° NW 22:05:25 10° NNE
PSLV R/B 4.1 21:56:07 10° N 22:00:40 57° WNW 22:01:26 50° WSW
NOSS 2-1 (C) 4.0 22:01:53 39° NNE 22:01:53 39° NNE 22:04:09 10° NE
Timation 2 Rocket 4.4 21:56:03 10° NW 22:02:19 46° WSW 22:03:23 42° SW
Cosmos 158 Rocket 3.7 22:01:42 66° S 22:02:20 79° ESE 22:07:23 10° NNE
NOSS 2-2 (E) 3.7 21:58:30 10° NW 22:02:25 74° NE 22:05:29 24° ESE
Cosmos 2084 4.1 22:01:57 37° WNW 22:02:56 46° NNW 22:06:38 10° NE
Cosmos 1812 3.8 22:03:29 34° WNW 22:03:29 34° WNW 22:06:35 10° N
Cosmos 2278 4.2 22:02:49 32° WSW 22:05:17 54° NW 22:10:53 10° NNE
Meteor 2-2 Rocket 4.3 22:06:08 51° S 22:07:44 85° ESE 22:13:45 10° NNE
Cosmos 1816 Rocket 4.4 22:06:57 48° SSW 22:08:48 79° WNW 22:14:59 10° N
USA 215 3.9 22:03:26 10° ENE 22:09:19 34° SE 22:10:14 33° SSE
Cosmos 489 Rocket 4.4 22:03:51 10° NNW 22:10:10 78° WSW 22:12:17 44° SSE
Cosmos 1933 3.2 22:12:30 85° NNE 22:12:30 85° NNE 22:16:23 10° NNE
Cosmos 1766 Rocket 3.6 22:09:19 10° N 22:13:39 68° ENE 22:14:15 59° SE
CZ-2C R/B 4.1 22:13:11 11° ESE 22:17:51 34° ENE 22:22:36 10° N
Cosmos 1743 3.0 22:15:21 10° N 22:19:01 57° ENE 22:19:05 57° E
SL-16 R/B 4.1 22:14:25 10° ESE 22:19:48 32° NE 22:25:14 10° N
Cosmos 1900 4.5 22:15:28 10° NW 22:20:26 53° SW 22:20:26 53° SW
NOSS 2-2 (D) 3.7 22:16:47 10° NW 22:20:40 75° NE 22:25:58 10° ESE
NOSS 2-3 (C) 4.3 22:16:23 10° NW 22:21:33 84° NE 22:28:39 10° SE
Meteor 1-5 Rocket 4.3 22:16:03 10° NNW 22:21:48 68° W 22:23:22 48° SSW
Cosmos 2208 Rocket 4.3 22:21:10 44° WSW 22:22:46 66° WNW 22:28:14 10° NNE
Cosmos 1726 3.8 22:20:40 10° NNE 22:23:18 23° ENE 22:23:57 21° E
Cosmos 1515 3.7 22:24:45 67° NNW 22:24:45 67° NNW 22:27:55 10° N
ATLAS 3B R/B 4.0 22:17:06 10° WNW 22:24:28 48° NNE 22:32:01 10° E
Cosmos 2279 Rocket 4.0 22:18:32 10° N 22:24:48 77° ENE 22:27:37 35° SSE
NOSS 3-4 (A) 3.3 22:25:03 49° S 22:26:25 64° SE 22:32:33 10° NE
NOSS 3-4 (C) 3.3 22:25:07 49° S 22:26:28 63° SE 22:32:36 10° NE
NOSS 2-3 (D) 4.3 22:21:29 10° NW 22:26:37 85° NE 22:33:41 10° SE
NOSS 2-1 (D) 4.0 22:29:54 36° NNW 22:29:54 36° NNW 22:32:49 10° NE
H-2A R/B 3.2 22:26:16 10° N 22:29:58 31° WNW 22:30:48 28° W
ADEOS II 4.2 22:28:10 10° NE 22:31:47 18° E 22:35:12 11° SE
Cosmos 44 Rocket 3.5 22:32:11 51° S 22:33:05 60° SE 22:38:09 10° NE
Meteor 1-26 Rocket 4.3 22:31:16 46° S 22:33:06 80° ESE 22:39:02 10° NNE
Lacrosse 4 Rocket 3.1 22:33:41 18° WNW 22:35:41 27° NNW 22:39:08 10° NNE
Cosmos 2237 Rocket 4.1 22:34:53 15° SE 22:37:29 20° E 22:41:27 10° NE
ATLAS 5 CENTAUR R/B 2.8 22:35:45 10° NW 22:39:57 46° NNE 22:45:06 10° E
COSMOS 2428 3.4 22:39:20 33° SSE 22:41:07 43° ESE 22:46:29 10° NE
Nimbus 7 Rocket 4.3 22:36:50 10° NNE 22:42:43 83° WNW 22:44:50 42° SSW
Tsikada Rocket 4.0 22:40:53 41° SSW 22:43:05 71° WNW 22:49:16 10° N
Helios 1A Rocket 3.7 22:44:37 35° W 22:44:37 35° W 22:47:52 10° NNW
GEOS 3 Rocket 3.5 22:40:54 19° SE 22:44:45 78° SW 22:50:05 10° NW
Cosmos 773 Rocket 4.0 22:45:07 47° SW 22:46:39 80° WNW 22:51:57 10° NNE
Cosmos-2242 4.1 22:46:33 29° W 22:47:10 31° WNW 22:50:57 10° N
USA 267 3.2 22:40:51 10° SE 22:47:18 59° SSW 22:53:48 10° WNW
Meteor 1-14 Rocket 4.1 22:42:25 10° NNW 22:48:00 86° W 22:50:12 39° S
Cosmos 1812 Rocket 4.2 22:48:04 39° W 22:48:49 42° WNW 22:53:05 10° N
Cosmos 2322 3.9 22:50:35 40° S 22:52:31 61° ESE 22:58:10 10° NE
NOSS 2-3 (E) 4.3 22:48:00 10° NW 22:53:16 72° SW 23:00:29 10° SE
Cosmos 2360 Rocket 2.5 22:51:06 34° WSW 22:53:28 59° NW 22:59:05 10° NNE
Cosmos 1461 3.4 22:50:51 10° NW 22:53:33 38° WNW 22:53:33 38° WNW
IRIDIUM 103 4.4 22:50:15 10° N 22:55:30 77° E 22:57:45 35° SSE
Okean 3 Rocket 3.5 22:51:16 10° NNW 22:55:50 83° W 22:56:56 52° S
Cosmos 2333 4.2 22:54:04 39° SW 22:56:10 74° NW 23:01:48 10° NNE
Aureole 3 Rocket 4.3 22:54:33 10° NNW 22:58:11 25° W 22:58:11 25° W
Cosmos 2344 3.9 22:51:02 10° NW 22:59:03 75° SW 23:09:55 10° SE
Cosmos 1867 3.9 22:54:12 10° NW 22:59:23 43° WSW 22:59:55 42° SW
Cosmos 783 Rocket 4.4 22:58:25 45° SSW 23:00:04 87° WNW 23:05:20 10° NNE
RESURS DK-1 3.3 23:01:49 32° SE 23:02:31 34° ESE 23:06:13 10° NE
H-2A R/B 3.8 22:59:04 10° NNE 23:03:06 55° E 23:04:08 42° SSE
Cosmos 2278 Rocket 2.1 22:59:39 10° NW 23:05:22 77° WSW 23:09:02 23° SSE
Cosmos 2333 Rocket 2.6 23:03:47 31° WSW 23:06:21 57° NW 23:11:57 10° NNE
Cosmos 2322 Rocket 3.0 23:03:59 23° WSW 23:07:01 43° NW 23:12:23 10° NNE
Cosmos 2219 Rocket 2.2 23:05:42 38° SW 23:07:54 78° NW 23:13:33 10° NNE
Lacrosse 5 1.8 23:05:56 35° WSW 23:08:09 89° SSE 23:13:19 10° ENE
NOSS 2-2 (C) 3.6 23:04:10 10° NW 23:08:11 62° SW 23:13:45 10° SE
Cosmos 1538 Rocket 4.5 23:08:48 33° S 23:10:59 54° ESE 23:16:11 10° NNE
CZ-2D R/B 2.8 23:06:58 10° NNE 23:12:11 49° E 23:15:11 24° SSE
BREEZE-M DEB (TANK) 3.6 23:13:45 35° SSE 23:13:45 35° SSE 23:18:57 10° E
Cosmos 192 4.2 23:08:48 10° NNW 23:13:43 78° WSW 23:16:12 29° SSE
IRIDIUM 106 4.2 23:08:34 10° N 23:13:49 80° W 23:16:01 36° S
Cosmos 2221 2.8 23:13:29 43° WSW 23:14:20 51° WNW 23:18:31 10° N
Cosmos 1408 Rocket 3.4 23:11:53 10° NNW 23:16:13 87° W 23:17:46 40° S
Cosmos 2056 Rocket 4.3 23:12:07 10° NNW 23:17:26 54° NE 23:22:44 10° SE
Meteor 1-11 Rocket 3.6 23:13:24 10° NNW 23:19:01 89° ENE 23:22:33 23° SSE
Cosmos 1842 Rocket 3.5 23:21:55 43° SSW 23:23:21 85° WNW 23:27:51 10° N
ATLAS 2AS CENTAUR R/B 4.4 23:21:20 11° SSE 23:26:35 24° ESE 23:32:00 10° ENE
Cosmos 972 Rocket 4.1 23:24:39 36° SW 23:26:46 67° WNW 23:31:45 10° NNE
SL-16 R/B 3.8 23:22:57 12° W 23:27:26 29° NNW 23:32:21 10° NNE
CZ-2C R/B 4.0 23:22:37 10° NNE 23:27:32 43° E 23:31:22 17° SSE
MOZ.5/SAFIR/RUBIN 5/SL-8 4.4 23:27:03 35° WSW 23:27:54 38° W 23:32:20 10° NNW
Cosmos 1624 Rocket 4.5 23:23:23 10° NNW 23:28:37 62° ENE 23:33:46 10° SE
Cosmos 1733 3.6 23:25:19 10° N 23:28:52 55° ENE 23:30:50 24° SE
Cosmos 1378 4.4 23:30:16 23° WNW 23:30:26 23° WNW 23:33:13 10° NNW
SL-16 R/B 4.5 23:28:08 10° SE 23:31:36 17° E 23:35:06 10° ENE
Cosmos 1500 Rocket 3.5 23:30:55 10° NNW 23:35:23 77° W 23:37:28 31° S
Cosmos 1805 Rocket 3.4 23:31:39 10° NNW 23:36:02 89° SW 23:38:22 27° S
IDEFIX/ARIANE 42P 2.5 23:31:51 10° NNE 23:37:05 89° ESE 23:39:49 29° SSW
Resurs 1-4 Rocket 2.2 23:32:09 10° NNE 23:37:30 76° ESE 23:40:31 26° S
Sich 1 2.9 23:34:56 10° NNW 23:39:11 85° W 23:41:25 28° S
NOSS 3-1 (A) 4.3 23:34:47 10° NW 23:41:25 67° NNE 23:49:39 10° ESE
Cosmos 1536 2.9 23:37:53 10° NNW 23:41:41 53° W 23:42:36 42° SW
Cosmos 1943 Rocket 2.1 23:37:08 10° NW 23:42:47 70° WSW 23:48:25 10° SSE
ALOS 3.5 23:42:15 10° NNE 23:46:33 36° E 23:50:33 11° SSE
NOSS 0 Rocket 4.0 23:43:20 26° SSW 23:46:56 70° ESE 23:53:05 10° NE
Okean 1 3.2 23:48:49 33° S 23:50:26 81° E 23:54:15 10° NNE
Gbstr 26 Del rocket 3.1 23:49:29 35° SW 23:50:49 48° S 23:54:35 10° E
USA 215 3.2 23:46:26 10° ENE 23:53:00 75° SSE 23:57:34 21° WSW
COBE Rocket 3.7 23:50:26 10° NNE 23:55:07 83° WNW 23:57:42 26° SSW
Cosmos 1726 2.7 23:53:57 10° NNW 23:56:41 29° W 23:56:41 29° W
